Temperature
16 17 17 17 16 16 16 16 16 16 16 16 16 16 16 16 16 16 16 15 15 15 15 15 15 15 15 16 16 16 16 15 15 15 15 15 15 15 15 15 15 15 15
17 17 17 16 16 16 16 16 16 16 16 16 16 16 16 15 16 16 15 15 15 15 15 15 15 15 15 15 15 15 15 15 15 15 15 15 15 15 15 15 15 15 15
16 16 16 16 16 16 16 16 16 16 16 16 16 16 15 15 15 15 15 15 15 15 15 15 15 15 15 15 15 15 15 15 15 15 15 15 15 15 15 15 15 15 15
16 16 16 16 16 16 16 16 16 16 16 16 16 15 15 15 15 15 15 15 15 15 15 15 15 15 15 15 15 15 15 15 15 14 14 14 14 14 15 15 15 15 15
15 16 16 16 16 16 16 16 16 16 16 15 15 15 15 15 15 15 15 15 15 15 15 15 15 15 15 15 15 15 15 15 14 14 14 14 14 14 14 14 15 15 15
15 15 15 15 16 16 16 16 15 15 15 15 15 15 15 15 15 15 15 15 15 15 15 15 15 15 15 15 15 15 15 14 14 14 14 14 14 14 14 14 14 14 14
14 15 15 15 15 15 15 15 15 15 15 15 15 15 15 15 15 15 15 15 15 15 15 15 15 15 15 15 15 15 14 14 14 14 13 13 14 14 14 14 14 14 14
14 15 15 15 15 15 15 15 15 15 15 15 15 15 15 15 15 15 15 15 15 15 15 15 15 15 14 14 14 14 14 14 13 13 13 13 14 14 14 14 14 14 14
14 14 15 15 15 15 15 15 15 15 15 15 15 15 15 14 14 15 14 15 15 15 15 15 15 14 14 14 14 14 14 13 13 13 13 13 13 13 14 13 14 14 14
14 14 14 14 14 14 14 15 15 15 15 15 15 14 14 14 14 14 14 14 14 15 15 14 14 14 14 14 14 14 13 13 13 13 13 13 13 13 13 13 13 14 14
13 13 13 14 14 14 14 14 14 14 14 14 14 14 14 14 14 14 14 14 14 14 14 14 14 14 14 13 13 13 13 13 12 12 12 13 13 13 13 13 13 13 13
13 13 13 13 14 14 14 14 14 14 14 14 14 14 14 14 14 14 14 14 14 14 14 14 13 13 13 13 13 13 12 12 12 12 12 12 13 13 13 13 13 13 13
12 13 13 13 13 13 13 13 13 14 14 14 14 14 13 13 13 13 13 13 13 13 13 13 13 13 13 12 12 12 12 12 12 12 12 12 12 12 12 12 12 12 12
12 12 13 13 13 13 13 13 13 13 13 13 13 13 13 13 13 13 13 13 13 13 13 13 13 12 12 12 12 12 12 12 12 11 12 12 12 12 12 12 12 12 12
12 12 12 12 12 12 13 13 13 13 13 13 13 13 13 13 13 12 12 12 12 12 12 12 12 12 12 12 11 11 11 11 11 11 11 11 11 11 11 11 11 11 11
12 12 12 12 12 12 12 12 12 12 12 12 12 12 12 12 12 12 12 12 12 12 12 12 12 12 12 11 11 11 11 11 11 11 11 11 11 11 11 11 11 11 11
12 12 12 12 12 12 12 12 12 12 12 12 12 12 12 12 12 12 12 12 12 12 12 12 11 11 11 11 11 11 11 10 10 10 10 10 10 11 11 11 11 11 11
11 11 11 12 11 11 11 11 11 11 11 11 12 12 12 12 12 11 12 12 11 11 11 11 11 11 11 11 11 10 10 10 10 10 10 10 10 10 10 10 10 10 10
11 11 11 11 11 11 11 11 11 11 11 11 11 11 11 11 11 11 11 11 11 11 11 11 11 11 11 11 10 10 10 10 10 10 10 10 10 10 10 10 10 10 10
11 11 11 11 11 11 11 11 11 11 11 11 11 11 11 11 11 11 11 11 11 11 11 11 10 10 10 10 10 10 10 10 10 9 9 9 9 9 9 9 9 9 9
10 10 10 11 11 10 10 10 10 10 10 10 10 11 11 11 11 11 11 11 11 10 10 10 10 10 10 10 10 9 9 9 9 9 9 9 9 9 9 9 9 9 9
10 10 10 10 10 10 10 10 10 10 10 10 10 10 10 10 10 10 10 10 10 10 10 10 10 10 10 9 9 9 8 8 8 9 9 9 8 8 8 8 8 8 8
10 10 10 10 10 10 10 10 10 10 10 10 10 10 10 10 10 10 10 10 10 10 10 10 9 9 9 9 9 8 8 8 8 8 8 8 8 8 8 8 8 8 8
9 10 10 10 10 10 10 10 9 9 9 9 10 10 10 10 10 10 9 9 9 9 9 9 9 9 9 9 8 8 8 7 7 7 7 7 7 7 7 7 7 7 7
9 9 9 9 9 9 9 9 9 9 9 9 9 9 9 9 9 9 9 9 9 9 9 9 9 8 8 8 8 8 8 7 7 6 6 7 7 7 7 7 7 7 7
9 9 9 9 9 9 9 9 9 9 9 9 9 9 9 9 9 9 9 9 9 8 8 8 8 8 8 8 8 7 7 7 7 6 6 6 6 6 6 6 6 6 6
Wind_Speed
8 10 11 11 11 11 11 11 10 10 10 10 9 9 8 9 9 9 8 8 8 8 8 8 8 9 9 9 9 9 9 9 8 6 6 5 6 6 7 7 8 8 9
11 12 12 12 12 11 11 11 11 10 10 9 9 9 8 8 8 8 8 8 8 8 8 8 8 9 9 8 8 8 7 6 5 4 3 3 3 4 6 7 7 7 7
12 12 12 12 12 12 11 11 11 10 10 9 9 9 8 8 8 7 7 7 7 8 8 8 8 8 8 8 7 7 6 5 3 2 2 1 3 4 5 6 5 5 6
11 12 11 12 12 12 11 11 11 11 10 9 9 8 8 8 7 7 7 7 7 7 8 7 8 8 7 7 7 6 5 4 5 6 5 1 5 5 5 5 5 4 4
11 12 12 12 13 12 12 12 11 11 10 10 9 9 8 8 8 7 7 7 7 7 7 7 7 6 6 6 5 5 4 5 8 8 3 4 6 6 5 4 4 4 3
10 12 12 12 13 12 11 11 11 11 10 10 9 8 8 8 7 8 7 7 7 7 7 7 6 6 6 5 5 4 5 7 9 6 3 6 7 5 4 3 3 3 3
9 11 12 12 12 12 11 11 11 10 10 9 9 8 8 7 8 8 8 7 7 7 7 6 6 6 5 5 5 5 6 8 8 5 4 7 7 6 5 4 4 4 4
9 10 11 11 11 11 11 11 10 10 10 9 8 8 8 8 8 8 8 7 7 6 6 5 5 5 5 4 4 5 6 8 7 5 4 6 6 5 5 5 5 5 4
9 9 9 10 11 11 11 10 10 9 9 8 8 7 7 8 8 7 7 7 6 6 5 5 4 4 4 3 3 5 7 8 7 5 4 7 7 6 6 5 5 6 5
7 6 7 9 9 10 10 10 9 9 8 8 8 7 6 6 7 7 6 5 5 5 4 4 3 3 2 2 3 5 7 8 5 3 6 7 7 6 6 6 6 6 6
6 5 5 5 6 8 9 9 9 8 7 7 7 5 4 4 5 5 5 4 3 3 3 2 2 2 2 2 3 5 6 4 3 6 7 8 7 7 7 6 6 6 6
5 4 4 4 5 5 5 7 7 7 5 4 4 4 4 4 3 3 4 3 1 1 2 2 3 2 2 2 2 4 4 4 5 6 8 8 7 7 7 7 7 7 7
5 5 5 4 5 4 3 4 4 5 4 5 4 3 3 4 3 4 3 2 1 2 2 3 3 2 2 1 1 2 3 4 5 7 7 8 8 8 8 8 8 7 7
6 5 5 5 5 4 4 4 4 4 4 4 4 4 4 3 3 3 3 3 3 3 3 4 3 3 3 3 2 2 3 3 4 5 7 8 8 8 8 7 7 7 7
6 5 5 5 5 4 3 2 4 4 4 5 4 4 4 3 2 3 3 3 4 4 3 4 3 3 2 3 3 3 3 4 5 6 6 7 8 8 8 8 7 7 8
6 5 5 5 5 4 3 2 3 5 4 6 6 6 5 4 3 3 3 3 3 4 4 4 4 3 2 2 3 4 4 5 6 7 6 6 7 8 8 9 9 8 8
6 5 5 5 4 4 3 3 4 4 4 4 5 6 6 6 4 4 2 2 3 4 5 4 4 3 2 2 3 3 4 5 5 6 7 6 5 6 8 9 9 9 9
6 6 5 4 4 4 4 3 3 4 4 4 4 5 6 6 5 4 2 2 4 5 4 2 2 3 3 3 2 2 2 3 4 5 6 6 6 6 7 8 9 9 10
6 6 5 4 4 5 4 3 4 4 4 4 5 5 5 5 5 5 3 3 5 4 3 3 3 2 2 3 2 1 1 2 2 4 5 6 7 7 6 6 7 8 9
5 6 5 5 5 4 3 3 3 3 2 3 4 5 5 5 5 4 3 4 4 2 2 3 3 3 2 2 2 1 0 1 2 2 3 4 6 6 6 6 6 6 8
5 5 5 5 4 3 2 2 2 1 2 2 3 4 4 4 3 3 2 2 3 2 2 2 2 2 2 2 2 2 1 1 2 2 2 3 4 5 6 6 6 6 5
5 5 5 5 4 4 2 2 2 2 2 2 2 3 3 3 3 2 2 1 1 1 2 2 2 2 1 2 2 1 2 1 1 1 2 2 2 3 4 5 5 5 5
5 5 5 4 4 4 3 3 3 2 1 1 1 1 1 2 2 2 2 2 1 1 1 2 2 2 1 1 2 1 1 1 2 1 1 2 2 1 1 2 4 4 5
5 5 5 4 4 3 3 3 3 2 2 2 2 2 1 2 2 2 1 1 1 1 1 1 2 1 1 1 1 1 1 1 1 2 2 1 1 1 1 1 2 2 3
5 5 5 5 4 4 3 3 3 2 1 2 2 2 2 1 2 2 1 0 0 0 1 1 1 1 1 1 1 1 1 1 2 2 3 2 2 2 1 2 2 1 1
5 5 5 5 4 4 4 3 3 2 2 2 2 2 1 1 2 2 2 1 1 1 1 0 1 1 1 1 1 1 1 1 1 1 2 3 3 3 2 2 2 2 1
Wind_Direction
115 117 127 125 125 126 124 121 117 112 108 104 103 104 99 93 88 84 80 77 74 74 74 76 73 70 66 62 58 56 57 58 61 65 69 65 60 55 49 50 51 58 62
119 120 125 126 125 124 124 122 118 113 110 106 101 99 100 94 89 85 80 77 75 75 73 74 71 69 65 62 59 56 57 57 59 63 69 71 80 76 64 57 54 53 55
117 119 120 124 123 122 121 120 116 113 110 106 102 97 94 93 88 86 83 78 77 74 72 69 68 67 64 60 57 55 55 50 32 355 319 239 138 112 85 68 59 50 44
114 116 117 119 120 120 119 119 116 113 109 105 102 98 92 89 91 89 85 78 76 75 73 70 67 66 63 60 54 48 40 14 340 317 295 137 102 106 90 70 50 39 34
107 109 114 116 119 118 120 119 116 112 108 104 100 96 90 85 83 82 81 75 74 73 72 69 65 62 59 56 48 34 9 344 325 313 332 63 82 93 85 67 41 22 15
107 106 112 114 118 117 118 119 118 114 111 107 102 96 91 87 81 77 77 74 73 73 70 69 65 60 54 50 38 14 346 333 322 319 10 61 75 75 63 47 23 360 347
110 109 115 114 118 118 115 117 119 116 113 108 105 100 97 91 83 77 73 72 73 72 68 66 63 58 53 46 32 7 344 331 318 335 29 61 67 61 44 22 3 344 335
108 109 117 115 116 117 113 111 116 118 115 110 109 105 98 92 86 78 72 70 69 68 64 60 54 48 44 37 22 358 342 334 338 352 42 65 64 51 31 16 359 346 338
106 113 119 117 116 118 113 113 112 118 120 117 113 110 105 98 92 84 76 69 66 64 62 55 47 39 32 21 357 338 329 326 327 335 34 62 52 36 19 6 1 359 353
99 108 123 126 126 127 120 119 117 118 126 127 123 120 122 120 108 95 83 73 65 58 57 50 41 31 11 339 315 313 313 314 316 10 46 59 49 31 17 11 5 2 1
101 99 102 108 112 122 131 138 134 130 137 145 136 131 129 114 106 107 99 88 73 54 42 34 14 346 315 297 282 294 306 304 1 48 56 54 46 33 22 21 19 16 14
120 115 102 97 97 109 132 147 145 131 128 127 112 108 104 96 94 101 130 120 98 47 12 334 321 298 282 282 291 291 311 354 34 53 56 56 46 34 30 28 26 23 22
131 121 104 97 94 91 92 108 100 102 104 88 74 75 91 82 70 83 98 86 40 46 13 334 313 315 339 11 350 339 350 33 44 55 60 57 48 39 32 26 24 21 22
124 117 104 100 95 84 87 95 100 89 74 76 71 55 66 65 44 52 66 41 34 26 3 343 325 336 349 14 13 14 27 50 63 71 69 63 51 41 32 26 23 20 19
122 116 111 106 103 92 78 80 88 82 77 83 66 53 54 62 57 43 57 46 38 16 358 336 343 346 2 11 14 33 32 41 60 79 84 72 58 44 33 27 24 23 19
124 119 113 110 110 107 95 85 83 87 81 80 67 55 49 52 45 49 57 45 26 7 354 349 0 5 10 20 18 30 37 38 48 57 70 71 62 47 35 30 28 24 20
129 123 118 114 112 108 100 92 93 93 89 83 80 67 54 48 39 52 63 51 14 3 4 8 5 12 10 19 18 32 44 36 51 59 57 57 55 50 42 35 32 31 28
128 123 120 123 116 104 98 87 90 89 84 80 82 75 58 49 37 46 57 45 16 12 11 5 13 11 13 20 14 14 46 43 49 68 69 60 54 54 51 45 40 36 32
126 125 120 112 113 103 97 91 85 83 78 78 77 73 59 49 40 49 46 35 24 19 14 4 18 19 17 9 348 359 51 64 46 63 76 74 67 61 57 52 50 45 38
116 120 121 117 111 108 110 106 96 84 74 76 77 73 61 52 41 42 47 40 25 36 20 13 7 11 14 345 334 340 131 125 88 72 71 77 73 62 56 54 51 42 36
118 122 125 122 120 120 122 126 123 121 107 86 82 74 66 59 49 45 37 40 35 41 22 20 8 4 7 3 6 330 272 167 130 129 93 75 71 66 64 60 53 42 37
135 134 129 129 133 133 131 119 109 107 100 105 95 82 74 68 62 58 47 55 56 43 28 26 14 3 354 26 34 354 335 327 321 139 115 105 86 75 71 63 55 42 39
147 149 138 135 133 133 133 116 105 96 99 107 115 110 92 86 98 71 42 43 52 69 64 29 19 27 341 337 51 74 45 298 320 286 205 143 127 99 97 90 73 48 33
152 146 134 142 139 139 133 136 151 158 166 173 154 149 131 123 117 104 69 30 33 73 65 22 37 356 4 308 324 354 211 186 267 308 299 263 169 175 171 116 93 62 35
147 146 146 151 146 143 145 155 159 154 153 134 130 143 155 153 148 158 167 195 235 97 88 43 11 336 331 284 281 296 301 301 232 229 280 292 300 264 208 166 145 146 65
147 150 156 157 154 154 162 166 165 166 161 147 156 167 184 175 184 181 191 206 205 186 173 206 253 279 281 292 289 270 225 245 281 265 270 285 284 267 248 211 174 169 153
Height
1513 1515 1518 1520 1521 1523 1525 1526 1527 1528 1529 1530 1531 1532 1533 1533 1534 1534 1535 1535 1535 1536 1536 1537 1537 1537 1537 1537 1537 1538 1538 1538 1538 1538 1539 1539 1539 1539 1539 1539 1539 1539 1539
1511 1515 1517 1519 1521 1523 1525 1526 1528 1529 1530 1531 1532 1532 1533 1534 1534 1535 1535 1536 1536 1536 1537 1537 1537 1537 1537 1537 1538 1538 1538 1538 1539 1539 1539 1539 1540 1540 1540 1540 1540 1539 1539
1511 1514 1517 1519 1521 1523 1525 1527 1528 1529 1530 1531 1532 1533 1533 1534 1535 1535 1535 1536 1536 1537 1537 1537 1537 1537 1537 1537 1538 1538 1538 1539 1539 1540 1540 1540 1540 1540 1540 1540 1540 1540 1540
1512 1514 1516 1519 1521 1523 1525 1526 1528 1529 1530 1531 1532 1533 1534 1534 1535 1535 1536 1536 1536 1537 1537 1537 1537 1537 1537 1537 1538 1538 1538 1539 1540 1540 1540 1540 1540 1540 1540 1540 1540 1540 1540
1512 1514 1517 1519 1521 1523 1524 1526 1528 1529 1530 1532 1532 1533 1534 1534 1535 1535 1536 1536 1537 1537 1537 1537 1537 1537 1537 1537 1538 1538 1538 1539 1540 1540 1541 1541 1541 1540 1540 1540 1540 1540 1540
1511 1514 1516 1519 1521 1522 1524 1526 1528 1529 1530 1531 1532 1533 1534 1534 1535 1535 1536 1536 1537 1537 1537 1537 1537 1537 1537 1537 1537 1538 1538 1539 1539 1540 1540 1540 1540 1540 1540 1540 1540 1540 1540
1511 1513 1516 1518 1520 1522 1524 1526 1527 1529 1530 1531 1532 1533 1534 1534 1535 1535 1536 1536 1537 1537 1537 1537 1537 1537 1537 1537 1537 1538 1538 1538 1539 1539 1539 1539 1540 1539 1539 1539 1539 1539 1539
1511 1513 1515 1518 1520 1522 1524 1525 1527 1528 1530 1531 1532 1533 1534 1534 1535 1535 1536 1536 1536 1536 1537 1537 1537 1537 1537 1537 1537 1537 1538 1538 1538 1539 1539 1539 1539 1539 1539 1538 1538 1538 1538
1511 1513 1515 1517 1519 1521 1523 1525 1527 1528 1529 1531 1532 1533 1533 1534 1534 1535 1535 1536 1536 1536 1536 1536 1536 1536 1537 1537 1537 1537 1537 1537 1538 1538 1538 1538 1538 1538 1537 1537 1537 1537 1537
1511 1513 1515 1517 1519 1521 1523 1525 1526 1528 1529 1530 1531 1532 1533 1534 1534 1535 1535 1535 1536 1536 1536 1536 1536 1536 1536 1536 1536 1537 1537 1537 1537 1537 1537 1537 1537 1537 1536 1536 1536 1536 1536
1511 1512 1514 1516 1518 1520 1522 1524 1525 1527 1528 1529 1531 1532 1532 1533 1533 1534 1534 1535 1535 1535 1535 1535 1535 1535 1536 1536 1536 1536 1536 1536 1536 1537 1536 1536 1536 1536 1535 1535 1535 1534 1534
1509 1511 1513 1515 1517 1519 1521 1523 1524 1526 1527 1529 1530 1531 1532 1532 1533 1533 1534 1534 1534 1534 1534 1535 1535 1535 1535 1535 1535 1535 1535 1535 1536 1536 1535 1535 1535 1535 1534 1534 1533 1533 1533
1509 1511 1512 1514 1516 1518 1519 1521 1523 1525 1526 1528 1529 1530 1531 1531 1532 1532 1533 1533 1533 1534 1534 1534 1534 1534 1535 1535 1535 1535 1535 1535 1535 1535 1534 1534 1534 1533 1533 1532 1532 1532 1531
1508 1510 1511 1513 1515 1517 1518 1520 1522 1523 1525 1526 1528 1528 1529 1530 1531 1531 1532 1532 1533 1533 1533 1533 1534 1534 1534 1534 1534 1534 1534 1534 1534 1534 1533 1533 1533 1532 1531 1531 1530 1530 1530
1507 1509 1511 1513 1514 1516 1517 1519 1520 1522 1524 1525 1526 1527 1528 1529 1529 1530 1531 1531 1532 1532 1532 1532 1533 1533 1533 1533 1533 1533 1533 1533 1533 1533 1532 1532 1531 1531 1530 1530 1529 1529 1528
1506 1508 1510 1511 1513 1515 1516 1517 1519 1521 1522 1524 1525 1526 1527 1528 1528 1529 1530 1530 1531 1531 1531 1531 1532 1532 1532 1532 1532 1532 1532 1532 1532 1531 1531 1531 1530 1529 1529 1528 1528 1527 1527
1505 1507 1509 1510 1512 1514 1515 1517 1518 1519 1521 1522 1523 1524 1525 1526 1527 1528 1529 1529 1529 1530 1530 1530 1530 1531 1531 1531 1531 1531 1531 1531 1530 1530 1530 1529 1529 1528 1527 1527 1526 1526 1525
1504 1506 1508 1509 1511 1512 1514 1516 1517 1518 1519 1521 1522 1522 1523 1524 1525 1527 1527 1528 1528 1529 1529 1529 1529 1529 1529 1529 1529 1529 1529 1529 1529 1528 1528 1528 1527 1527 1526 1525 1525 1524 1523
1504 1505 1507 1508 1510 1511 1512 1514 1515 1516 1517 1519 1520 1521 1522 1523 1524 1525 1526 1526 1527 1527 1528 1528 1528 1528 1527 1527 1527 1527 1527 1527 1527 1527 1527 1526 1526 1525 1525 1524 1523 1523 1522
1503 1504 1506 1507 1509 1510 1512 1513 1514 1514 1516 1517 1518 1519 1520 1521 1522 1524 1524 1525 1526 1526 1526 1526 1526 1526 1526 1526 1526 1525 1525 1525 1526 1525 1525 1525 1524 1524 1523 1522 1522 1521 1520
1502 1504 1505 1506 1508 1509 1510 1511 1513 1513 1515 1516 1517 1517 1519 1520 1521 1522 1523 1524 1524 1524 1525 1525 1525 1525 1525 1524 1524 1523 1524 1524 1524 1524 1524 1523 1523 1522 1521 1521 1520 1519 1518
1500 1502 1504 1505 1507 1508 1510 1511 1512 1513 1514 1515 1516 1517 1517 1519 1520 1520 1521 1522 1522 1523 1523 1523 1524 1523 1523 1523 1523 1522 1522 1523 1522 1522 1522 1521 1521 1520 1519 1518 1518 1517 1516
1499 1501 1502 1504 1506 1507 1509 1510 1511 1512 1513 1514 1515 1516 1516 1517 1518 1519 1519 1520 1521 1521 1521 1522 1522 1522 1522 1522 1522 1522 1522 1521 1520 1520 1520 1519 1519 1518 1517 1516 1515 1514 1513
1498 1500 1501 1503 1505 1506 1507 1509 1510 1511 1512 1513 1514 1514 1515 1515 1515 1517 1518 1518 1519 1519 1519 1520 1520 1520 1520 1520 1520 1520 1521 1520 1520 1518 1518 1517 1516 1515 1514 1513 1512 1512 1511
1497 1499 1500 1502 1503 1504 1506 1507 1508 1509 1511 1511 1512 1512 1513 1513 1514 1515 1516 1516 1517 1517 1517 1517 1518 1518 1518 1518 1517 1517 1517 1517 1517 1516 1514 1514 1513 1513 1511 1510 1510 1509 1508
1496 1497 1499 1500 1501 1503 1504 1505 1507 1508 1509 1510 1510 1511 1511 1511 1512 1513 1513 1514 1514 1515 1515 1515 1515 1516 1515 1515 1515 1514 1514 1514 1514 1513 1512 1510 1510 1509 1508 1508 1507 1506 1505